Tracking 19909 objects as of 21-Oct-2019
HD Live streaming from Space Station
objects crossing your sky now

SL-8 DEB

Track SL-8 DEB now!
10-day predictions


NORAD ID: 22841
Int'l Code: 1991-009CL
Perigee: 1,484.3 km
Apogee: 1,689.6 km
Inclination: 74.0 °
Period: 117.8 minutes
Semi major axis: 7957 km
RCS: 0.0241 m2 (small)
Launch date: February 12, 1991
Source: Commonwealth of Independent States (former USSR) (CIS)
Launch site: PLESETSK MISSILE AND SPACE COMPLEX (PKMTR)

Note: This is SATELLITE DEBRIS
aabbcc
Your satellite tracking list
Your tracking list is empty




NASA's NSSDC Master Catalog

Two Line Element Set (TLE):
1 22841U 91009CL  19293.45727986 +.00000001 +00000-0 +13908-3 0  9993
2 22841 074.0398 289.6401 0128985 050.2435 103.6655 12.22922677277431
Source of the keplerian elements: AFSPC